Location: Binderh�gel
(48.6817°N, 13.7356°E)
Time: 05:48:48
(UTC+00:00)

Daily predictions for brighter satellites

Satellite Brightness Start Highest point End
(mag) Time Altitude Azimuth Time Altitude Azimuth Time Altitude Azimuth
SJ 16-02 3.7 00:03:06 13° ESE 00:03:56 13° E 00:06:04 10° ENE
SL-16 R/B 3.6 00:03:12 10° NNW 00:08:28 37° NE 00:13:42 10° ESE
Cosmos 1025 Rocket 2.9 00:08:01 10° N 00:12:12 85° NW 00:12:12 85° NW
Cosmos 1777 Rocket 4.2 00:12:23 52° SE 00:13:11 58° ESE 00:18:24 10° NNE
CZ-4 R/B 4.2 00:08:45 10° N 00:13:37 56° WNW 00:14:24 50° WSW
NOSS 0 Rocket 3.9 00:08:17 10° NW 00:14:29 67° WSW 00:15:54 52° S
CZ-2D R/B 3.1 00:09:42 10° NNE 00:14:50 39° E 00:16:30 32° SE
COSMOS 2428 3.3 00:11:36 10° NW 00:16:52 38° WSW 00:16:52 38° WSW
GEOS 3 Rocket 3.7 00:11:41 10° NE 00:17:05 66° SE 00:18:01 55° S
Meteor 1-29 3.6 00:13:57 10° NNE 00:16:43 54° N 00:16:43 54° N
ADEOS II 4.2 00:14:11 10° NE 00:17:44 18° E 00:20:30 13° SE
Cosmos 2360 Rocket 4.3 00:15:55 10° WNW 00:17:41 12° W 00:17:41 12° W
Lacrosse 4 Rocket 2.8 00:17:22 28° WNW 00:18:19 31° NW 00:22:05 10° NNE
Cosmos 2026 Rocket 3.9 00:21:24 10° N 00:27:31 80° E 00:29:55 39° SSE
Cosmos 1536 Rocket 3.4 00:23:47 10° NNW 00:28:08 76° W 00:28:12 76° WSW
KORONAS-FOTON 4.2 00:25:31 10° N 00:29:15 53° ENE 00:29:28 52° E
Cosmos 1627 Rocket 4.4 00:25:53 10° N 00:32:05 89° E 00:34:24 41° S
Cosmos 2297 Rocket 2.4 00:30:52 47° SSE 00:32:17 61° ESE 00:37:51 10° NE
Cosmos 1634 Rocket 4.0 00:31:20 42° S 00:33:36 76° E 00:39:50 10° NNE
Cosmos 1980 3.7 00:28:00 10° NNW 00:33:38 64° WSW 00:34:49 51° SSW
Cosmos 2219 3.2 00:32:41 51° S 00:34:03 73° ESE 00:39:41 10° NNE
Cosmos 2333 Rocket 3.6 00:31:43 10° NW 00:35:43 23° W 00:35:43 23° W
MOZ.5/SAFIR/RUBIN 5/SL-8 3.7 00:38:18 61° SSW 00:39:01 73° WSW 00:43:47 10° NNW
ERBS 4.2 00:37:12 10° NW 00:38:34 22° NW 00:38:34 22° NW
Cosmos 1626 3.7 00:37:22 10° N 00:40:44 31° ENE 00:42:04 24° ESE
Cosmos 1766 4.0 00:41:49 40° ESE 00:42:20 42° E 00:46:02 10° NNE
Cosmos 2237 Rocket 2.2 00:37:51 10° NW 00:43:24 58° WSW 00:44:32 48° SSW
Helios 1B rocket 3.8 00:49:32 10° N 00:52:59 26° WNW 00:53:28 26° WNW
Cosmos 1607 4.0 00:50:26 10° NW 00:56:55 82° NE 01:03:25 10° SE
Cosmos 1538 Rocket 4.2 00:54:14 10° NNW 00:59:13 49° WSW 00:59:58 45° SW
CZ-4C R/B 3.1 01:00:00 64° WNW 01:00:00 64° WNW 01:03:15 10° NNW
ATLAS 3B R/B 4.1 00:55:19 10° W 01:01:09 31° NNW 01:07:04 10° NE
SL-16 R/B 2.5 00:59:59 35° S 01:02:39 65° WSW 01:08:54 10° NNW
COBE Rocket 4.1 01:00:26 27° SSE 01:02:55 65° ENE 01:07:31 10° N
Okean 2 Rocket 4.2 01:02:15 28° W 01:02:55 30° WNW 01:06:54 10° N
SAR-Lupe-3 4.4 01:00:07 10° NNE 01:03:44 83° WNW 01:03:55 78° SW
USA 215 3.8 00:57:52 10° ENE 01:04:06 45° SE 01:06:48 31° S
FALCON 9 DEB 3.5 01:08:43 10° WNW 01:12:12 64° NNE 01:15:40 10° ESE
Resurs 1-4 Rocket 2.1 01:07:08 10° NNE 01:12:25 74° WNW 01:14:25 39° SSW
Cosmos 1805 3.2 01:13:32 59° SW 01:14:04 69° W 01:17:58 10° N
Okean 1-7 Rocket 4.2 01:11:09 10° N 01:15:30 53° ENE 01:18:34 18° SSE
Cosmos 2266 Rocket 4.4 01:11:21 10° N 01:17:43 65° ENE 01:23:43 11° SSE
BREEZE-M R/B 4.2 01:19:05 20° E 01:19:05 20° E 01:20:04 10° E
SL-14 R/B 3.3 01:14:02 10° N 01:17:59 77° E 01:19:22 38° SSE
Okean 1 Rocket 3.3 01:18:56 44° WSW 01:19:54 54° WNW 01:24:12 10° N
Meteor 1-15 Rocket 4.4 01:17:58 35° SW 01:20:11 59° WNW 01:25:44 10° N
Uosat 12 SS-18 rocket 4.4 01:18:27 36° WSW 01:20:17 65° NW 01:24:43 10° NE
Cosmos 2227 Rocket 2.2 01:19:04 35° SW 01:21:30 71° WNW 01:27:11 10° NNE
Cosmos 1674 3.5 01:18:27 10° NNW 01:21:38 33° W 01:21:38 33° W
Cosmos 1655 Rocket 4.0 01:17:05 10° N 01:23:24 89° E 01:28:01 19° S
Cosmos 2112 Rocket 4.0 01:19:26 10° NNW 01:24:43 85° ENE 01:29:34 12° SSE
AQUA 3.8 01:22:03 10° NNE 01:26:50 77° WNW 01:28:45 36° SSW
UNK 4.4 01:27:34 34° WSW 01:28:19 36° W 01:32:40 10° NNW
Cosmos 1733 3.2 01:27:32 50° SW 01:28:20 67° W 01:32:11 10° N
CBERS-1 4.0 01:26:20 10° NNE 01:31:30 79° ESE 01:34:16 28° S
Cosmos 1937 Rocket 4.4 01:29:31 19° SSE 01:32:55 43° ESE 01:37:57 10° NE
Cosmos 1758 4.2 01:34:05 21° SSE 01:36:30 45° E 01:40:22 10° NNE
NOSS 3-1 (C) 3.9 01:33:35 24° S 01:36:36 48° ESE 01:42:36 10° NE
USA 267 3.4 01:31:02 10° ESE 01:37:34 78° NNE 01:44:07 10° NW
ARIANE 5 R/B 3.4 01:33:25 10° NNE 01:38:27 45° E 01:42:41 14° SSE
Cosmos 1898 Rocket 3.8 01:35:45 25° S 01:38:44 64° ESE 01:43:55 10° NNE
Meteor 2-19 Rocket 4.4 01:34:16 10° NNW 01:40:24 68° W 01:44:42 20° S
SJ 16-02 1.3 01:40:06 35° SW 01:41:54 74° WNW 01:46:21 10° NNE
Cosmos 1680 Rocket 3.5 01:36:59 10° NNW 01:42:09 61° WSW 01:45:53 19° S
Cosmos 2082 3.7 01:39:45 29° SSW 01:42:45 82° WNW 01:48:24 10° NNE
Cosmos 1726 3.8 01:41:51 12° SSE 01:44:47 30° E 01:48:01 10° NNE
Cosmos 990 Rocket 4.0 01:44:13 26° SSW 01:47:12 80° ESE 01:52:24 10° NNE
IDEFIX/ARIANE 42P 3.8 01:42:58 10° NNE 01:47:47 37° E 01:52:35 10° SSE
Cosmos 1340 Rocket 3.0 01:48:30 24° S 01:50:48 67° E 01:54:45 10° NNE
SL-16 R/B 2.5 01:47:19 10° NW 01:52:43 45° WSW 01:56:46 17° S
Cosmos 1626 Rocket 4.0 01:48:56 10° N 01:53:14 60° ENE 01:57:29 10° SSE
Cosmos 1455 Rocket 3.0 01:51:22 26° SSW 01:53:48 80° W 01:58:16 10° N
SL-08 R/B 3.4 01:49:38 10° SSE 01:54:33 86° WSW 01:59:33 10° NNW
SL-4 R/B 1.9 01:54:33 38° SW 01:54:37 38° SSW 01:57:48 10° SE
CZ-2D R/B 3.0 01:49:52 10° N 01:54:51 37° WNW 01:57:49 21° WSW
Cosmos 1461 3.0 01:52:47 29° SSW 01:54:57 79° SE 01:59:33 10° NE
IRS-1D 3.6 01:50:27 10° N 01:55:27 65° WNW 01:58:30 24° SW
Meteor 1-24 Rocket 4.0 01:50:30 10° NNW 01:55:44 46° W 01:58:47 22° SSW
NPP 4.3 01:51:18 10° N 01:56:19 40° WNW 01:59:16 22° WSW
ADEOS II 2.1 01:52:44 10° N 01:57:59 73° WNW 02:01:25 22° SSW
Cosmos 1953 3.5 01:55:00 11° SSE 01:58:38 41° E 02:02:27 10° NNE
CZ-2D R/B 4.3 01:56:54 10° NNE 02:00:50 45° E 02:04:19 12° S
Cosmos 1892 Rocket 4.1 01:56:40 10° NNW 02:00:53 42° W 02:03:00 25° SSW
CZ-4B R/B 3.7 01:56:36 10° N 02:01:13 49° WNW 02:03:51 24° SW
Meteor 2-21 4.5 02:02:57 10° N 02:09:03 85° E 02:15:08 10° S
USA 229 DEB 3.8 02:05:21 19° SSW 02:10:14 70° SE 02:17:06 10° NE
USA 229 3.8 02:05:27 19° SSW 02:10:19 69° SE 02:17:09 10° NE
IRS-1C 4.1 02:06:58 10° NNE 02:12:19 76° WNW 02:16:32 17° SSW
Cosmos 2263 Rocket 2.9 02:07:55 11° S 02:12:58 49° ESE 02:18:19 10° NE
Cosmos 1626 3.5 02:12:58 10° NW 02:15:48 21° W 02:16:34 20° WSW
Cosmos 2297 Rocket 3.5 02:12:41 14° W 02:16:43 29° NW 02:21:37 10° NNE
Cosmos 2098 Rocket 4.0 02:15:22 10° NNW 02:19:56 44° W 02:25:09 12° SSW
NOSS 2-3 (C) 4.2 02:17:45 16° SSW 02:21:00 51° ESE 02:25:52 10° NE
NOSS 3-1 (A) 3.7 02:16:56 15° SSW 02:21:24 59° ESE 02:27:40 10° NE
Meteor 1-28 Rocket 3.6 02:20:46 16° SSW 02:23:32 44° W 02:27:12 10° NNW
Cosmos 1703 4.3 02:20:17 10° N 02:24:09 48° ENE 02:28:00 10° SSE
H-2A R/B 2.0 02:26:16 10° SSE 02:30:23 80° ENE 02:34:30 10° NNW
Timation 1 Rocket 4.3 02:26:51 15° SSW 02:31:58 84° WNW 02:37:59 10° NNE
Cosmos 1603 3.7 02:26:46 10° NNW 02:32:32 74° WSW 02:38:12 10° SSE
Cosmos 1470 3.7 02:32:06 17° SW 02:34:36 34° WNW 02:38:15 10° N
SeaSat 1 3.4 02:33:51 10° NE 02:38:34 43° ESE 02:43:15 10° S
Cosmos 1544 Rocket 4.3 02:37:11 15° SW 02:40:34 39° WNW 02:44:48 10° N
Spot 4 Rocket 4.1 02:38:58 10° NNE 02:44:08 73° WNW 02:49:17 10° SSW
USA 215 3.4 02:40:51 10° NE 02:47:23 73° NNW 02:53:53 10° WSW
SL-16 R/B 4.3 02:45:32 10° WSW 02:47:28 11° W 02:49:24 10° WNW
FALCON 9 DEB 4.0 02:45:59 10° WNW 02:49:04 30° SW 02:52:08 10° SSE
Resurs 1-4 Rocket 4.1 02:48:45 10° NNW 02:51:22 14° NW 02:53:57 10° W
Cosmos 1048 Rocket 4.1 02:47:57 10° NNW 02:53:07 84° ENE 02:58:17 10° SSE
Cosmos 1553 Rocket 4.1 02:49:07 10° S 02:55:10 82° E 03:01:19 10° N
Cosmos 1602 Rocket 4.1 02:54:23 10° NNW 02:58:27 39° W 03:02:28 10° SSW
Cosmos 1943 3.3 02:53:08 10° NW 02:58:38 56° WSW 03:04:05 10° S
Cosmos 1606 Rocket 4.0 02:58:34 10° S 03:03:00 68° E 03:07:29 10° NNE
Cosmos 1745 Rocket 4.2 02:57:03 10° N 03:03:24 82° E 03:09:38 10° S
Cosmos 2227 Rocket 4.1 03:02:49 10° W 03:06:37 18° NW 03:10:27 10° N
MSX 4.0 03:09:16 10° N 03:14:58 65° WNW 03:20:40 10° SSW
ERS-2 2.6 03:11:36 10° S 03:15:02 38° W 03:18:29 10° NNW
